Time,TemperatureF,DewpointF,PressureIn,WindDirection,WindDirectionDegrees,WindSpeedMPH,WindSpeedGustMPH,Humidity,HourlyPrecipIn,Conditions,Clouds,dailyrainin,SoftwareType,DateUTC
2013-02-03 00:01:00,30.0,12.0,30.22,SSW,196,0.0,2.0,46,0.00,,,0.00,,2013-02-03 07:01:00,
2013-02-03 00:11:00,30.0,12.0,30.22,SSW,196,0.0,2.0,46,0.00,,,0.00,,2013-02-03 07:11:00,
2013-02-03 00:21:00,30.0,12.0,30.21,SSW,196,0.0,2.0,46,0.00,,,0.00,,2013-02-03 07:21:00,
2013-02-03 00:31:00,30.0,12.0,30.20,SSW,196,1.0,2.0,46,0.00,,,0.00,,2013-02-03 07:31:00,
2013-02-03 00:41:00,30.0,12.0,30.20,SSW,196,1.0,2.0,46,0.00,,,0.00,,2013-02-03 07:41:00,
2013-02-03 00:52:00,30.0,12.0,30.20,SSW,196,0.0,1.0,46,0.00,,,0.00,,2013-02-03 07:52:00,
2013-02-03 01:01:00,30.0,12.0,30.19,SSW,196,1.0,2.0,46,0.00,,,0.00,,2013-02-03 08:01:00,
2013-02-03 01:11:00,30.0,12.0,30.19,SSW,196,1.0,2.0,46,0.00,,,0.00,,2013-02-03 08:11:00,
2013-02-03 01:22:00,29.0,11.0,30.18,SSW,196,1.0,2.0,47,0.00,,,0.00,,2013-02-03 08:22:00,
2013-02-03 01:32:00,29.0,11.0,30.18,SSW,196,0.0,2.0,47,0.00,,,0.00,,2013-02-03 08:32:00,
2013-02-03 01:41:00,29.0,11.0,30.18,SSW,196,0.0,2.0,47,0.00,,,0.00,,2013-02-03 08:41:00,
2013-02-03 01:52:00,28.0,14.0,30.16,SSW,196,0.0,1.0,54,0.00,,,0.00,,2013-02-03 08:52:00,
2013-02-03 02:02:00,28.0,14.0,30.16,SSW,196,1.0,2.0,56,0.00,,,0.00,,2013-02-03 09:02:00,
2013-02-03 02:11:00,28.0,14.0,30.16,SSW,196,1.0,2.0,56,0.00,,,0.00,,2013-02-03 09:11:00,
2013-02-03 02:21:00,28.0,14.0,30.15,SSW,195,2.0,2.0,55,0.00,,,0.00,,2013-02-03 09:21:00,
2013-02-03 02:31:00,28.0,12.0,30.15,SSW,196,0.0,1.0,51,0.00,,,0.00,,2013-02-03 09:31:00,
2013-02-03 02:42:00,28.0,12.0,30.15,SSW,196,0.0,1.0,51,0.00,,,0.00,,2013-02-03 09:42:00,
2013-02-03 02:52:00,28.0,11.0,30.15,SSW,196,0.0,2.0,49,0.00,,,0.00,,2013-02-03 09:52:00,
2013-02-03 03:01:00,28.0,11.0,30.15,SSW,196,0.0,2.0,49,0.00,,,0.00,,2013-02-03 10:01:00,
2013-02-03 03:11:00,28.0,11.0,30.15,SSW,196,0.0,2.0,49,0.00,,,0.00,,2013-02-03 10:11:00,
2013-02-03 03:21:00,28.0,11.0,30.15,SSW,196,0.0,2.0,49,0.00,,,0.00,,2013-02-03 10:21:00,
2013-02-03 03:31:00,28.0,11.0,30.14,SSW,196,1.0,3.0,49,0.00,,,0.00,,2013-02-03 10:31:00,
2013-02-03 03:42:00,28.0,11.0,30.14,SSW,196,1.0,3.0,49,0.00,,,0.00,,2013-02-03 10:42:00,
2013-02-03 03:52:00,28.0,10.0,30.13,SSW,196,1.0,2.0,47,0.00,,,0.00,,2013-02-03 10:52:00,
2013-02-03 04:02:00,28.0,10.0,30.12,SSW,196,2.0,2.0,47,0.00,,,0.00,,2013-02-03 11:02:00,
2013-02-03 04:11:00,28.0,10.0,30.12,SSW,196,2.0,2.0,47,0.00,,,0.00,,2013-02-03 11:11:00,
2013-02-03 04:22:00,28.0,10.0,30.12,SSW,196,0.0,2.0,47,0.00,,,0.00,,2013-02-03 11:22:00,
2013-02-03 04:32:00,28.0,11.0,30.11,SSW,196,2.0,2.0,48,0.00,,,0.00,,2013-02-03 11:32:00,
2013-02-03 04:42:00,28.0,11.0,30.11,SSW,196,2.0,2.0,48,0.00,,,0.00,,2013-02-03 11:42:00,
2013-02-03 04:52:00,28.0,10.0,30.11,SSW,197,0.0,2.0,47,0.00,,,0.00,,2013-02-03 11:52:00,
2013-02-03 05:02:00,28.0,11.0,30.10,SSW,196,0.0,2.0,48,0.00,,,0.00,,2013-02-03 12:02:00,
2013-02-03 05:11:00,28.0,11.0,30.10,SSW,196,0.0,2.0,48,0.00,,,0.00,,2013-02-03 12:11:00,
2013-02-03 05:22:00,28.0,11.0,30.09,SSW,196,0.0,3.0,48,0.00,,,0.00,,2013-02-03 12:22:00,
2013-02-03 05:32:00,27.0,10.0,30.09,SSW,196,1.0,3.0,49,0.00,,,0.00,,2013-02-03 12:32:00,
2013-02-03 05:42:00,27.0,10.0,30.09,SSW,196,1.0,3.0,49,0.00,,,0.00,,2013-02-03 12:42:00,
2013-02-03 05:53:00,28.0,11.0,30.07,SSW,196,1.0,2.0,48,0.00,,,0.00,,2013-02-03 12:53:00,
2013-02-03 06:03:00,28.0,10.0,30.07,SSW,195,1.0,3.0,47,0.00,,,0.00,,2013-02-03 13:03:00,
2013-02-03 06:11:00,28.0,10.0,30.07,SSW,195,1.0,3.0,47,0.00,,,0.00,,2013-02-03 13:11:00,
2013-02-03 06:21:00,28.0,11.0,30.07,SSW,196,2.0,3.0,48,0.00,,,0.00,,2013-02-03 13:21:00,
2013-02-03 06:32:00,28.0,11.0,30.06,SSW,196,0.0,3.0,49,0.00,,,0.00,,2013-02-03 13:32:00,
2013-02-03 06:42:00,28.0,11.0,30.06,SSW,196,0.0,3.0,49,0.00,,,0.00,,2013-02-03 13:42:00,
2013-02-03 06:52:00,28.0,11.0,30.06,SSW,196,0.0,2.0,48,0.00,,,0.00,,2013-02-03 13:52:00,
2013-02-03 07:02:00,28.0,10.0,30.06,SSW,196,1.0,3.0,46,0.00,,,0.00,,2013-02-03 14:02:00,
2013-02-03 07:11:00,28.0,10.0,30.06,SSW,196,1.0,3.0,46,0.00,,,0.00,,2013-02-03 14:11:00,
2013-02-03 07:21:00,29.0,9.0,30.06,SSW,196,1.0,2.0,42,0.00,,,0.00,,2013-02-03 14:21:00,
2013-02-03 07:32:00,29.0,10.0,30.05,SSW,196,0.0,3.0,44,0.00,,,0.00,,2013-02-03 14:32:00,
2013-02-03 07:42:00,29.0,10.0,30.05,SSW,196,0.0,3.0,44,0.00,,,0.00,,2013-02-03 14:42:00,
2013-02-03 07:52:00,29.0,11.0,30.05,SSW,196,1.0,3.0,46,0.00,,,0.00,,2013-02-03 14:52:00,
2013-02-03 08:03:00,29.0,12.0,30.04,SSW,196,2.0,3.0,48,0.00,,,0.00,,2013-02-03 15:03:00,
2013-02-03 08:11:00,29.0,12.0,30.04,SSW,196,2.0,3.0,48,0.00,,,0.00,,2013-02-03 15:11:00,
2013-02-03 08:22:00,30.0,11.0,30.03,SSW,196,0.0,3.0,44,0.00,,,0.00,,2013-02-03 15:22:00,
2013-02-03 08:32:00,31.0,13.0,30.04,SSW,196,0.0,2.0,46,0.00,,,0.00,,2013-02-03 15:32:00,
2013-02-03 08:42:00,31.0,13.0,30.04,SSW,196,0.0,2.0,46,0.00,,,0.00,,2013-02-03 15:42:00,
2013-02-03 08:52:00,32.0,14.0,30.03,SSW,196,1.0,2.0,47,0.00,,,0.00,,2013-02-03 15:52:00,
2013-02-03 09:02:00,36.0,12.0,30.03,SSW,197,0.0,3.0,36,0.00,,,0.00,,2013-02-03 16:02:00,
2013-02-03 09:22:00,35.0,13.0,30.03,SW,232,0.0,4.0,39,0.00,,,0.00,,2013-02-03 16:22:00,
2013-02-03 09:32:00,36.0,11.0,30.00,NNW,327,0.0,4.0,35,0.00,,,0.00,,2013-02-03 16:32:00,
2013-02-03 09:42:00,36.0,11.0,30.00,NNW,327,0.0,4.0,35,0.00,,,0.00,,2013-02-03 16:42:00,
2013-02-03 09:52:00,36.0,10.0,30.00,NNW,327,1.0,3.0,34,0.00,,,0.00,,2013-02-03 16:52:00,
2013-02-03 10:02:00,39.0,12.0,30.00,NE,54,3.0,3.0,33,0.00,,,0.00,,2013-02-03 17:02:00,
2013-02-03 10:11:00,39.0,12.0,30.00,NE,54,3.0,3.0,33,0.00,,,0.00,,2013-02-03 17:11:00,
2013-02-03 10:22:00,39.0,12.0,30.00,NE,52,2.0,5.0,33,0.00,,,0.00,,2013-02-03 17:22:00,
2013-02-03 10:32:00,39.0,12.0,29.98,NNW,344,0.0,6.0,32,0.00,,,0.00,,2013-02-03 17:32:00,
2013-02-03 10:42:00,39.0,12.0,29.98,NNW,344,0.0,6.0,32,0.00,,,0.00,,2013-02-03 17:42:00,
2013-02-03 10:52:00,39.0,9.0,29.98,NNW,338,1.0,6.0,28,0.00,,,0.00,,2013-02-03 17:52:00,
2013-02-03 11:02:00,41.0,10.0,29.99,NNW,340,0.0,4.0,28,0.00,,,0.00,,2013-02-03 18:02:00,
2013-02-03 11:12:00,41.0,10.0,29.99,NNW,340,0.0,4.0,28,0.00,,,0.00,,2013-02-03 18:12:00,
2013-02-03 11:23:00,42.0,10.0,29.97,NNW,341,2.0,3.0,27,0.00,,,0.00,,2013-02-03 18:23:00,
2013-02-03 11:32:00,42.0,10.0,29.96,NNW,341,0.0,2.0,27,0.00,,,0.00,,2013-02-03 18:32:00,
2013-02-03 11:42:00,42.0,10.0,29.96,NNW,341,0.0,2.0,27,0.00,,,0.00,,2013-02-03 18:42:00,
2013-02-03 11:52:00,42.0,10.0,29.95,NNW,341,2.0,3.0,26,0.00,,,0.00,,2013-02-03 18:52:00,
2013-02-03 12:02:00,44.0,10.0,29.95,NNW,340,0.0,2.0,25,0.00,,,0.00,,2013-02-03 19:02:00,
2013-02-03 12:11:00,44.0,10.0,29.95,NNW,340,0.0,2.0,25,0.00,,,0.00,,2013-02-03 19:11:00,
2013-02-03 12:22:00,44.0,11.0,29.93,NNW,341,0.0,4.0,26,0.00,,,0.00,,2013-02-03 19:22:00,
2013-02-03 12:32:00,47.0,13.0,29.92,ENE,63,0.0,6.0,25,0.00,,,0.00,,2013-02-03 19:32:00,
2013-02-03 12:42:00,47.0,13.0,29.92,ENE,63,0.0,6.0,25,0.00,,,0.00,,2013-02-03 19:42:00,
2013-02-03 12:52:00,48.0,12.0,29.89,NE,46,1.0,4.0,23,0.00,,,0.00,,2013-02-03 19:52:00,
2013-02-03 13:01:00,47.0,14.0,29.88,NE,47,0.0,4.0,26,0.00,,,0.00,,2013-02-03 20:01:00,
2013-02-03 13:12:00,47.0,14.0,29.88,NE,47,0.0,4.0,26,0.00,,,0.00,,2013-02-03 20:12:00,
2013-02-03 13:21:00,47.0,13.0,29.88,NE,50,0.0,2.0,25,0.00,,,0.00,,2013-02-03 20:21:00,
2013-02-03 13:32:00,48.0,14.0,29.87,East,81,0.0,2.0,25,0.00,,,0.00,,2013-02-03 20:32:00,
2013-02-03 13:42:00,48.0,14.0,29.87,East,81,0.0,2.0,25,0.00,,,0.00,,2013-02-03 20:42:00,
2013-02-03 13:52:00,47.0,12.0,29.88,East,81,1.0,2.0,24,0.00,,,0.00,,2013-02-03 20:52:00,
2013-02-03 14:03:00,48.0,12.0,29.85,ENE,69,0.0,2.0,23,0.00,,,0.00,,2013-02-03 21:03:00,
2013-02-03 14:11:00,48.0,12.0,29.85,ENE,69,0.0,2.0,23,0.00,,,0.00,,2013-02-03 21:11:00,
2013-02-03 14:21:00,48.0,11.0,29.85,ENE,66,0.0,3.0,22,0.00,,,0.00,,2013-02-03 21:21:00,
2013-02-03 14:32:00,48.0,11.0,29.85,NE,48,1.0,5.0,22,0.00,,,0.00,,2013-02-03 21:32:00,
2013-02-03 14:42:00,48.0,11.0,29.85,NE,48,1.0,5.0,22,0.00,,,0.00,,2013-02-03 21:42:00,
2013-02-03 14:52:00,48.0,11.0,29.85,NNW,347,1.0,10.0,22,0.00,,,0.00,,2013-02-03 21:52:00,
2013-02-03 15:01:00,48.0,9.0,29.85,NNW,348,3.0,4.0,20,0.00,,,0.00,,2013-02-03 22:01:00,
2013-02-03 15:11:00,48.0,9.0,29.85,NNW,348,3.0,4.0,20,0.00,,,0.00,,2013-02-03 22:11:00,
2013-02-03 15:21:00,48.0,8.0,29.85,NNE,23,1.0,7.0,19,0.00,,,0.00,,2013-02-03 22:21:00,
2013-02-03 15:32:00,48.0,8.0,29.85,NNW,340,5.0,5.0,19,0.00,,,0.00,,2013-02-03 22:32:00,
2013-02-03 15:41:00,48.0,8.0,29.85,NNW,340,5.0,5.0,19,0.00,,,0.00,,2013-02-03 22:41:00,
2013-02-03 15:52:00,48.0,11.0,29.85,North,4,1.0,6.0,22,0.00,,,0.00,,2013-02-03 22:52:00,
2013-02-03 16:01:00,47.0,8.0,29.86,North,5,1.0,5.0,20,0.00,,,0.00,,2013-02-03 23:01:00,
2013-02-03 16:12:00,47.0,8.0,29.86,North,5,1.0,5.0,20,0.00,,,0.00,,2013-02-03 23:12:00,
2013-02-03 16:22:00,47.0,8.0,29.87,North,5,4.0,5.0,20,0.00,,,0.00,,2013-02-03 23:22:00,
2013-02-03 16:32:00,47.0,7.0,29.86,North,2,0.0,6.0,19,0.00,,,0.00,,2013-02-03 23:32:00,
2013-02-03 16:42:00,47.0,7.0,29.86,North,2,0.0,6.0,19,0.00,,,0.00,,2013-02-03 23:42:00,
2013-02-03 16:52:00,47.0,8.0,29.87,North,3,2.0,4.0,20,0.00,,,0.00,,2013-02-03 23:52:00,
2013-02-03 17:01:00,46.0,8.0,29.86,North,3,0.0,4.0,21,0.00,,,0.00,,2013-02-04 00:01:00,
2013-02-03 17:11:00,46.0,8.0,29.86,North,3,0.0,4.0,21,0.00,,,0.00,,2013-02-04 00:11:00,
2013-02-03 17:22:00,46.0,9.0,29.86,North,3,0.0,0.0,22,0.00,,,0.00,,2013-02-04 00:22:00,
2013-02-03 17:32:00,44.0,8.0,29.86,North,2,0.0,2.0,22,0.00,,,0.00,,2013-02-04 00:32:00,
2013-02-03 17:41:00,44.0,8.0,29.86,North,2,0.0,2.0,22,0.00,,,0.00,,2013-02-04 00:41:00,
2013-02-03 17:52:00,43.0,9.0,29.88,North,3,0.0,1.0,24,0.00,,,0.00,,2013-02-04 00:52:00,
2013-02-03 18:01:00,42.0,9.0,29.88,North,2,0.0,1.0,25,0.00,,,0.00,,2013-02-04 01:01:00,
2013-02-03 18:11:00,42.0,9.0,29.88,North,2,0.0,1.0,25,0.00,,,0.00,,2013-02-04 01:11:00,
2013-02-03 18:21:00,41.0,9.0,29.87,North,2,1.0,2.0,26,0.00,,,0.00,,2013-02-04 01:21:00,
2013-02-03 18:31:00,39.0,9.0,29.87,North,2,1.0,2.0,28,0.00,,,0.00,,2013-02-04 01:31:00,
2013-02-03 18:41:00,39.0,9.0,29.87,North,2,1.0,2.0,28,0.00,,,0.00,,2013-02-04 01:41:00,
2013-02-03 18:52:00,38.0,10.0,29.88,North,2,2.0,3.0,31,0.00,,,0.00,,2013-02-04 01:52:00,
2013-02-03 19:02:00,36.0,8.0,29.88,North,2,2.0,3.0,31,0.00,,,0.00,,2013-02-04 02:02:00,
2013-02-03 19:11:00,36.0,8.0,29.88,North,2,2.0,3.0,31,0.00,,,0.00,,2013-02-04 02:11:00,
2013-02-03 19:21:00,36.0,13.0,29.85,North,1,1.0,2.0,39,0.00,,,0.00,,2013-02-04 02:21:00,
2013-02-03 19:31:00,35.0,10.0,29.87,North,2,0.0,3.0,35,0.00,,,0.00,,2013-02-04 02:31:00,
2013-02-03 19:41:00,35.0,10.0,29.87,North,2,0.0,3.0,35,0.00,,,0.00,,2013-02-04 02:41:00,
2013-02-03 19:52:00,35.0,9.0,29.87,North,2,0.0,2.0,34,0.00,,,0.00,,2013-02-04 02:52:00,
2013-02-03 20:02:00,34.0,10.0,29.87,North,1,0.0,1.0,36,0.00,,,0.00,,2013-02-04 03:02:00,
2013-02-03 20:11:00,34.0,10.0,29.87,North,1,0.0,1.0,36,0.00,,,0.00,,2013-02-04 03:11:00,
2013-02-03 20:21:00,33.0,8.0,29.86,North,1,2.0,3.0,35,0.00,,,0.00,,2013-02-04 03:21:00,
2013-02-03 20:32:00,34.0,7.0,29.87,North,2,1.0,3.0,32,0.00,,,0.00,,2013-02-04 03:32:00,
2013-02-03 20:42:00,34.0,7.0,29.87,North,2,1.0,3.0,32,0.00,,,0.00,,2013-02-04 03:42:00,
2013-02-03 20:52:00,33.0,9.0,29.87,North,2,0.0,3.0,36,0.00,,,0.00,,2013-02-04 03:52:00,
2013-02-03 21:01:00,34.0,3.0,29.88,North,2,2.0,2.0,26,0.00,,,0.00,,2013-02-04 04:01:00,
2013-02-03 21:11:00,34.0,3.0,29.88,North,2,2.0,2.0,26,0.00,,,0.00,,2013-02-04 04:11:00,
2013-02-03 21:21:00,34.0,2.0,29.88,North,2,0.0,3.0,25,0.00,,,0.00,,2013-02-04 04:21:00,
2013-02-03 21:32:00,34.0,3.0,29.89,North,2,2.0,3.0,26,0.00,,,0.00,,2013-02-04 04:32:00,
2013-02-03 21:41:00,34.0,3.0,29.89,North,2,2.0,3.0,26,0.00,,,0.00,,2013-02-04 04:41:00,
2013-02-03 21:52:00,33.0,3.0,29.89,North,2,0.0,3.0,27,0.00,,,0.00,,2013-02-04 04:52:00,
2013-02-03 22:03:00,34.0,4.0,29.89,North,2,2.0,3.0,27,0.00,,,0.00,,2013-02-04 05:03:00,
2013-02-03 22:11:00,34.0,4.0,29.89,North,2,2.0,3.0,27,0.00,,,0.00,,2013-02-04 05:11:00,
2013-02-03 22:22:00,34.0,3.0,29.89,North,2,1.0,4.0,26,0.00,,,0.00,,2013-02-04 05:22:00,
2013-02-03 22:33:00,40.0,-3.0,29.89,WNW,294,4.0,6.0,16,0.00,,,0.00,,2013-02-04 05:33:00,
2013-02-03 22:42:00,40.0,-3.0,29.89,WNW,294,4.0,6.0,16,0.00,,,0.00,,2013-02-04 05:42:00,
2013-02-03 22:52:00,41.0,1.0,29.89,NW,313,1.0,6.0,18,0.00,,,0.00,,2013-02-04 05:52:00,
2013-02-03 23:01:00,42.0,-2.0,29.89,WNW,287,5.0,9.0,15,0.00,,,0.00,,2013-02-04 06:01:00,
2013-02-03 23:21:00,42.0,-4.0,29.89,NW,306,4.0,9.0,14,0.00,,,0.00,,2013-02-04 06:21:00,
2013-02-03 23:32:00,42.0,-4.0,29.91,WNW,300,2.0,6.0,14,0.00,,,0.00,,2013-02-04 06:32:00,
2013-02-03 23:52:00,42.0,-2.0,29.91,WNW,300,0.0,4.0,15,0.00,,,0.00,,2013-02-04 06:52:00,